Date String (YYYY-MM-DD hh:mm:ss) UTC,Instrument flags,absolute air pressure of the measurement (hPa),sample flow rate (lpm),inlet stack bypass flow (lpm),air temperature of the measurement (°C),ambient temperature measured by the external sensor (°C),aerosol sample conditioner tube jacket temperature (°C),OPC LED temperature (°C),internal box temperature (°C),relative humidity of the measurement (%),span deviation,mass concentration of particles derived from Lorenz-Mie calculation of OPC scattering (μg/m³),mass concentration of particles derived from Lorenz-Mie calculation of OPC scattering (μg/m³),mass concentration of particles derived from Lorenz-Mie calculation of OPC scattering (μg/m³)
DateTimeUTC,F1_M11,P_M11,Q1_M11,Q2_M11,T1_M11,T2_M11,T3_M11,T4_M11,T5_M11,U1_M11,ZSPAN_M11,X2_M11,X0_M11,X1_M11
2023-11-09 17:00:00,SystemResetWarning,0835.8,5.02,000.00,022.7,022.2,000.0,030.8,024.3,13.4,0000.0,0003.36,0007.85,0002.99
2023-11-09 17:01:00,SystemResetWarning,0835.6,5.01,000.00,022.7,022.2,000.0,030.8,024.3,13.2,0000.0,0003.36,0007.85,0002.99
2023-11-09 17:02:00,SystemResetWarning,0835.6,4.98,000.00,022.8,022.2,000.0,030.9,024.4,13.4,0000.0,0003.34,0007.78,0002.98
2023-11-09 17:03:00,SystemResetWarning,0835.7,5.01,000.00,022.8,022.2,000.0,030.9,024.4,13.6,0000.0,0003.30,0007.52,0002.97
2023-11-09 17:04:00,SystemResetWarning,0835.8,5.01,000.00,022.8,022.2,000.0,030.9,024.4,13.4,0000.0,0003.29,0007.09,0002.95
2023-11-09 17:05:00,SystemResetWarning,0835.6,5.00,000.00,022.8,022.3,000.0,030.9,024.4,13.4,0000.0,0003.27,0007.13,0002.94
2023-11-09 17:06:00,SystemResetWarning,0835.7,4.99,000.00,022.8,022.3,000.0,030.9,024.4,13.4,0000.0,0003.25,0007.11,0002.92
2023-11-09 17:07:00,SystemResetWarning,0835.7,5.00,000.00,022.9,022.3,000.0,031.0,024.5,13.4,0000.0,0003.23,0007.05,0002.90
2023-11-09 17:08:00,SystemResetWarning,0835.8,4.99,000.00,022.9,022.3,000.0,031.0,024.5,13.5,0000.0,0003.22,0007.11,0002.89
2023-11-09 17:09:00,SystemResetWarning,0835.8,5.01,000.00,022.9,022.3,000.0,031.0,024.5,13.3,0000.0,0003.21,0007.42,0002.88
2023-11-09 17:10:00,SystemResetWarning,0835.8,5.01,000.00,022.9,022.4,000.0,031.0,024.5,13.8,0000.0,0003.23,0007.14,0002.91
2023-11-09 17:11:00,SystemResetWarning,0835.8,5.00,000.00,023.0,022.4,000.0,031.1,024.6,13.8,0000.0,0003.25,0006.08,0002.94
2023-11-09 17:12:00,SystemResetWarning,0835.8,4.99,000.00,023.0,022.4,000.0,031.1,024.6,13.6,0000.0,0003.25,0006.03,0002.94
2023-11-09 17:13:00,SystemResetWarning,0835.8,4.99,000.00,023.0,022.4,000.0,031.1,024.6,13.2,0000.0,0003.26,0006.16,0002.95
2023-11-09 17:14:00,SystemResetWarning,0835.8,5.00,000.00,023.0,022.4,000.0,031.1,024.6,13.3,0000.0,0003.28,0006.32,0002.97
2023-11-09 17:15:00,SystemResetWarning,0835.8,5.00,000.00,023.0,022.5,000.0,031.1,024.7,13.2,0000.0,0003.30,0006.34,0003.00
2023-11-09 17:16:00,SystemResetWarning,0835.8,5.00,000.00,023.1,022.5,000.0,031.2,024.7,13.3,0000.0,0003.31,0005.77,0003.01
2023-11-09 17:17:00,SystemResetWarning,0835.8,5.00,000.00,023.1,022.5,000.0,031.2,024.7,12.9,0000.0,0003.30,0005.47,0003.00
2023-11-09 17:18:00,SystemResetWarning,0835.8,5.01,000.00,023.1,022.5,000.0,031.2,024.7,13.1,0000.0,0003.30,0005.45,0003.01
2023-11-09 17:19:00,SystemResetWarning,0835.8,5.01,000.00,023.1,022.6,000.0,031.2,024.7,13.2,0000.0,0003.30,0005.22,0003.00
2023-11-09 17:20:00,SystemResetWarning,0835.8,4.99,000.00,023.1,022.6,000.0,031.2,024.8,13.4,0000.0,0003.28,0004.57,0003.00
2023-11-09 17:21:00,SystemResetWarning,0835.8,4.99,000.00,023.2,022.6,000.0,031.3,024.8,13.3,0000.0,0003.26,0004.48,0002.99
2023-11-09 17:22:00,SystemResetWarning,0835.8,4.99,000.00,023.2,022.6,000.0,031.3,024.8,12.8,0000.0,0003.25,0004.45,0002.99
2023-11-09 17:23:00,SystemResetWarning,0835.8,5.00,000.00,023.2,022.6,000.0,031.3,024.8,13.0,0000.0,0003.29,0004.91,0003.01
2023-11-09 17:24:00,SystemResetWarning,0835.8,5.00,000.00,023.2,022.6,000.0,031.3,024.8,13.7,0000.0,0003.29,0004.83,0003.04
2023-11-09 17:25:00,SystemResetWarning,0835.8,5.00,000.00,023.2,022.6,000.0,031.3,024.8,13.7,0000.0,0003.30,0004.72,0003.04
2023-11-09 17:26:00,SystemResetWarning,0835.8,5.00,000.00,023.2,022.6,000.0,031.3,024.8,13.5,0000.0,0003.29,0004.69,0003.03
2023-11-09 17:27:00,SystemResetWarning,0835.8,5.01,000.00,023.3,022.7,000.0,031.4,024.8,13.3,0000.0,0003.31,0004.72,0003.03
2023-11-09 17:28:00,SystemResetWarning,0835.8,5.00,000.00,023.3,022.7,000.0,031.4,024.9,13.4,0000.0,0003.32,0004.72,0003.05
2023-11-09 17:29:00,SystemResetWarning,0835.8,5.00,000.00,023.3,022.7,000.0,031.4,024.9,13.6,0000.0,0003.34,0004.79,0003.08
2023-11-09 17:30:00,SystemResetWarning,0835.8,4.99,000.00,023.3,022.7,000.0,031.4,024.9,13.1,0000.0,0003.35,0004.82,0003.09
2023-11-09 17:31:00,SystemResetWarning,0835.8,4.99,000.00,023.3,022.7,000.0,031.4,024.9,12.6,0000.0,0003.38,0004.91,0003.11
2023-11-09 17:32:00,SystemResetWarning,0835.8,5.01,000.00,023.3,022.7,000.0,031.5,024.9,13.0,0000.0,0003.39,0004.92,0003.12
2023-11-09 17:33:00,SystemResetWarning,0835.7,5.00,000.00,023.4,022.8,000.0,031.5,024.9,13.5,0000.0,0003.39,0004.94,0003.13
2023-11-09 17:34:00,SystemResetWarning,0835.7,5.00,000.00,023.4,022.8,000.0,031.5,024.9,13.9,0000.0,0003.37,0004.62,0003.13
2023-11-09 17:35:00,SystemResetWarning,0835.7,5.01,000.00,023.4,022.8,000.0,031.5,025.0,13.6,0000.0,0003.35,0004.35,0003.11
2023-11-09 17:36:00,SystemResetWarning,0835.8,5.01,000.00,023.4,022.8,000.0,031.5,025.0,13.8,0000.0,0003.35,0004.46,0003.11
2023-11-09 17:37:00,SystemResetWarning,0835.6,4.99,000.00,023.4,022.8,000.0,031.6,025.0,13.5,0000.0,0003.39,0004.74,0003.13
2023-11-09 17:38:00,SystemResetWarning,0835.6,4.99,000.00,023.4,022.8,000.0,031.6,025.0,13.6,0000.0,0003.37,0004.61,0003.15
2023-11-09 17:39:00,SystemResetWarning,0835.6,4.99,000.00,023.5,022.9,000.0,031.6,025.0,14.1,0000.0,0003.37,0005.25,0003.16
2023-11-09 17:40:00,SystemResetWarning,0835.6,5.00,000.00,023.5,022.9,000.0,031.6,025.0,13.9,0000.0,0003.37,0005.69,0003.16
2023-11-09 17:41:00,SystemResetWarning,0835.6,5.01,000.00,023.5,022.9,000.0,031.6,025.1,14.2,0000.0,0003.37,0005.67,0003.17
2023-11-09 17:42:00,SystemResetWarning,0835.6,5.01,000.00,023.5,022.9,000.0,031.6,025.1,14.2,0000.0,0003.38,0005.67,0003.18
2023-11-09 17:43:00,SystemResetWarning,0835.6,4.99,000.00,023.5,022.9,000.0,031.7,025.1,14.2,0000.0,0003.40,0005.75,0003.19
2023-11-09 17:44:00,SystemResetWarning,0835.6,4.99,000.00,023.5,022.9,000.0,031.7,025.1,13.8,0000.0,0003.44,0005.87,0003.22
2023-11-09 17:45:00,SystemResetWarning,0835.6,4.99,000.00,023.6,022.9,000.0,031.7,025.1,13.6,0000.0,0003.49,0006.09,0003.25
2023-11-09 17:46:00,SystemResetWarning,0835.6,4.99,000.00,023.6,023.0,000.0,031.7,025.1,13.5,0000.0,0003.55,0006.24,0003.29
2023-11-09 17:47:00,SystemResetWarning,0835.6,5.00,000.00,023.6,023.0,000.0,031.7,025.1,13.6,0000.0,0003.57,0007.08,0003.32
2023-11-09 17:48:00,SystemResetWarning,0835.6,5.01,000.00,023.6,023.0,000.0,031.8,025.1,13.6,0000.0,0003.56,0007.31,0003.33
2023-11-09 17:49:00,SystemResetWarning,0835.6,5.01,000.00,023.6,023.0,000.0,031.8,025.2,13.2,0000.0,0003.59,0007.34,0003.35
2023-11-09 17:50:00,SystemResetWarning,0835.6,4.99,000.00,023.6,023.0,000.0,031.8,025.2,12.8,0000.0,0003.60,0006.85,0003.37
2023-11-09 17:51:00,SystemResetWarning,0835.6,4.99,000.00,023.7,023.0,000.0,031.8,025.2,12.4,0000.0,0003.62,0006.37,0003.39
2023-11-09 17:52:00,SystemResetWarning,0835.6,5.01,000.00,023.7,023.1,000.0,031.8,025.2,12.3,0000.0,0003.63,0006.38,0003.40
2023-11-09 17:53:00,SystemResetWarning,0835.6,5.00,000.00,023.7,023.1,000.0,031.8,025.2,12.1,0000.0,0003.63,0006.37,0003.41
2023-11-09 17:54:00,SystemResetWarning,0835.6,5.01,000.00,023.7,023.1,000.0,031.9,025.3,12.1,0000.0,0003.61,0006.32,0003.39
2023-11-09 17:55:00,SystemResetWarning,0835.5,5.01,000.00,023.7,023.1,000.0,031.9,025.3,12.8,0000.0,0003.59,0006.28,0003.37
2023-11-09 17:56:00,SystemResetWarning,0835.5,5.00,000.00,023.8,023.1,000.0,031.9,025.3,13.4,0000.0,0003.52,0006.00,0003.34
2023-11-09 17:57:00,SystemResetWarning,0835.5,5.00,000.00,023.8,023.2,000.0,031.9,025.3,13.2,0000.0,0003.51,0005.96,0003.33
2023-11-09 17:58:00,SystemResetWarning,0835.5,5.00,000.00,023.8,023.2,000.0,031.9,025.4,13.3,0000.0,0003.51,0005.55,0003.32
2023-11-09 17:59:00,SystemResetWarning,0835.5,5.00,000.00,023.8,023.2,000.0,031.9,025.4,13.0,0000.0,0003.55,0004.99,0003.34
